VVWC41 KSAN-

Flight info

Callsign VVWC41
Flight time N/A
Altitude VFR/005
Route VFR OPR
Aircraft H60/M-VGD/C

Departure

Time 2026-04-26 02:19
Airport San Diego International Airport (KSAN)

Arrival

Time N/A
Airport -
Time Latitude Longitude Altitude Speed Heading
2026-04-26 02:15 32.75126 -117.16064 346 ft 0 kts 287°
2026-04-26 02:16 32.75127 -117.16065 348 ft 1 kts 289°
2026-04-26 02:17 32.75185 -117.16067 395 ft 25 kts 63°
2026-04-26 02:17 32.75262 -117.15712 492 ft 66 kts 84°
2026-04-26 02:17 32.75303 -117.15049 557 ft 89 kts 87°
2026-04-26 02:17 32.75287 -117.14225 553 ft 109 kts 91°
2026-04-26 02:18 32.75224 -117.13304 508 ft 109 kts 98°
2026-04-26 02:18 32.75074 -117.12432 526 ft 111 kts 103°
2026-04-26 02:18 32.74908 -117.11537 581 ft 107 kts 103°
2026-04-26 02:18 32.74746 -117.10706 580 ft 100 kts 105°
2026-04-26 02:19 32.74584 -117.09922 600 ft 102 kts 108°
2026-04-26 02:19 32.74382 -117.09066 680 ft 111 kts 111°
2026-04-26 02:19 32.74155 -117.08184 708 ft 112 kts 111°
2026-04-26 02:19 32.73883 -117.07301 818 ft 114 kts 115°
2026-04-26 02:20 32.73593 -117.06420 849 ft 120 kts 116°
2026-04-26 02:20 32.73227 -117.05453 840 ft 135 kts 119°
2026-04-26 02:20 32.72813 -117.04397 829 ft 144 kts 120°
2026-04-26 02:20 32.72395 -117.03312 750 ft 145 kts 120°
2026-04-26 02:21 32.71980 -117.02212 746 ft 145 kts 120°
2026-04-26 02:21 32.71559 -117.01155 904 ft 140 kts 120°
2026-04-26 02:21 32.71069 -117.00130 875 ft 146 kts 132°
2026-04-26 02:21 32.70329 -116.99297 863 ft 147 kts 150°
2026-04-26 02:22 32.69365 -116.98973 862 ft 137 kts 181°
2026-04-26 02:22 32.68448 -116.98882 855 ft 133 kts 181°
2026-04-26 02:22 32.67507 -116.98811 856 ft 132 kts 181°
2026-04-26 02:22 32.66576 -116.98746 850 ft 136 kts 181°
2026-04-26 02:23 32.65711 -116.98898 854 ft 119 kts 207°
2026-04-26 02:23 32.65088 -116.99461 855 ft 114 kts 233°
2026-04-26 02:23 32.64518 -117.00210 853 ft 129 kts 232°
2026-04-26 02:23 32.63926 -117.01003 842 ft 124 kts 232°
2026-04-26 02:24 32.63344 -117.01771 855 ft 125 kts 233°
2026-04-26 02:24 32.62757 -117.02553 848 ft 123 kts 233°
2026-04-26 02:24 32.62178 -117.03331 859 ft 130 kts 232°
2026-04-26 02:24 32.61588 -117.04137 856 ft 130 kts 232°
2026-04-26 02:25 32.61003 -117.04956 874 ft 127 kts 232°
2026-04-26 02:25 32.60445 -117.05767 878 ft 125 kts 233°
2026-04-26 02:25 32.59879 -117.06577 874 ft 125 kts 232°
2026-04-26 02:25 32.59318 -117.07371 876 ft 127 kts 233°
2026-04-26 02:26 32.58758 -117.08180 871 ft 123 kts 232°
2026-04-26 02:26 32.58197 -117.08966 875 ft 121 kts 232°
2026-04-26 02:26 32.57742 -117.09831 877 ft 127 kts 252°
2026-04-26 02:26 32.57615 -117.10840 885 ft 111 kts 273°
2026-04-26 02:27 32.57674 -117.11799 878 ft 124 kts 274°
2026-04-26 02:27 32.57742 -117.12805 868 ft 122 kts 274°
2026-04-26 02:27 32.57809 -117.13828 876 ft 126 kts 275°
2026-04-26 02:27 32.58104 -117.14839 863 ft 135 kts 297°
2026-04-26 02:28 32.58562 -117.15724 879 ft 130 kts 303°
2026-04-26 02:28 32.59221 -117.16479 887 ft 125 kts 319°
2026-04-26 02:28 32.59937 -117.17124 867 ft 129 kts 319°
2026-04-26 02:28 32.60640 -117.17771 878 ft 126 kts 319°
2026-04-26 02:29 32.61413 -117.18346 874 ft 136 kts 333°
2026-04-26 02:29 32.62250 -117.18775 851 ft 135 kts 333°
2026-04-26 02:29 32.63078 -117.19191 860 ft 131 kts 333°
2026-04-26 02:29 32.63924 -117.19623 852 ft 135 kts 333°
2026-04-26 02:30 32.64743 -117.19996 863 ft 127 kts 336°
2026-04-26 02:30 32.65617 -117.20364 854 ft 139 kts 336°
2026-04-26 02:30 32.66586 -117.20607 849 ft 145 kts 350°
2026-04-26 02:30 32.67586 -117.20618 868 ft 134 kts 358°
2026-04-26 02:31 32.68508 -117.20564 837 ft 126 kts
2026-04-26 02:31 32.69330 -117.20469 762 ft 113 kts 360°
2026-04-26 02:31 32.70075 -117.20359 686 ft 99 kts
2026-04-26 02:31 32.70665 -117.20305 518 ft 72 kts
2026-04-26 02:32 32.71052 -117.20213 275 ft 41 kts
2026-04-26 02:32 32.71223 -117.20177 66 ft 6 kts 359°
2026-04-26 02:32 32.71228 -117.20165 35 ft 3 kts
2026-04-26 02:32 32.71235 -117.20164 21 ft 1 kts
2026-04-26 02:33 32.71236 -117.20164 20 ft 0 kts